Theta_e
310 310 310 310 310 310 310 310 310 309 307 306 306 306 307 309 309 312 315 316 320 317 318 316 318 314 316 315 317 314 316 315 317 320 322 328 342 341 341 339 341 343 342 341 346
310 309 310 309 309 309 310 310 310 309 307 307 307 307 309 309 312 318 315 323 323 320 315 317 318 315 313 317 316 315 311 315 316 318 322 327 342 344 348 348 346 345 345 339 345
309 309 309 308 308 309 309 310 310 309 308 308 309 309 310 308 322 326 325 317 320 317 314 319 319 318 316 314 316 316 315 315 317 316 321 324 340 340 343 339 337 340 349 344 346
309 308 308 308 308 308 309 309 310 309 308 309 310 310 309 315 327 321 323 319 313 314 314 318 316 316 315 316 314 317 315 316 316 317 320 321 332 341 340 337 334 343 343 342 339
307 306 307 307 307 308 308 309 310 310 309 309 310 309 311 322 318 321 316 313 313 313 317 317 317 315 315 315 315 315 316 317 316 316 317 320 319 322 338 340 341 343 344 345 345
306 305 305 306 306 307 307 309 310 310 315 310 309 309 321 320 325 323 316 314 314 314 316 315 316 315 315 316 316 316 318 317 316 315 316 320 319 322 338 335 342 345 338 342 343
304 304 305 306 306 306 307 309 310 313 313 311 309 314 322 320 324 318 314 313 314 317 316 318 317 317 316 316 316 317 318 314 315 317 318 318 319 320 338 335 345 341 332 330 332
304 304 305 305 305 306 307 309 311 315 313 311 312 321 321 323 322 319 318 318 319 320 319 320 319 318 318 317 317 317 314 314 314 317 319 316 333 334 338 338 345 338 334 336 335
304 304 304 305 306 306 308 310 312 316 314 313 321 323 323 325 321 322 321 319 320 320 320 319 319 317 316 317 315 313 315 315 315 318 320 322 330 333 336 341 343 341 338 335 335
303 304 304 305 306 306 309 312 318 317 322 320 322 322 323 325 323 323 322 321 319 318 319 319 314 315 313 314 317 316 316 315 319 326 329 331 332 332 330 338 338 336 333 333 339
303 303 304 305 306 307 310 313 319 321 323 317 317 324 321 327 321 322 322 321 323 321 320 319 317 317 316 316 317 318 317 318 321 326 331 333 334 333 330 329 336 337 338 333 335
302 303 304 305 306 308 314 314 321 319 316 321 324 323 322 322 321 321 322 322 322 322 321 318 318 319 319 320 318 318 321 322 321 328 333 334 335 333 332 331 330 338 338 345 335
302 303 304 306 307 316 311 315 317 318 318 320 319 322 321 320 320 320 319 320 321 321 321 319 320 322 321 319 321 321 321 321 323 330 331 332 332 334 334 333 335 335 337 337 340
302 303 303 305 310 308 314 316 317 318 318 321 322 322 322 318 319 319 321 321 322 322 321 321 322 322 320 322 321 323 323 322 322 318 321 329 326 332 334 334 337 332 331 332 349
302 302 303 303 307 309 312 313 317 320 332 327 322 322 319 319 320 320 321 320 321 321 323 323 321 321 322 323 323 324 323 323 323 322 321 329 330 328 336 332 333 329 330 332 346
302 302 303 304 305 308 310 314 318 321 327 323 318 318 318 318 319 320 321 320 320 320 321 322 323 322 325 324 323 323 323 321 322 322 326 327 331 335 337 333 331 335 333 335 344
302 303 303 304 307 308 312 316 319 325 324 320 318 319 318 318 319 320 320 319 318 325 322 323 324 326 326 325 323 323 320 323 327 332 336 333 333 330 333 334 331 333 333 340 340
302 303 306 307 308 310 315 317 322 324 325 321 318 318 320 319 319 319 318 317 319 323 322 322 324 326 325 324 324 325 323 322 332 333 330 332 335 329 333 332 332 333 338 339 338
302 306 308 310 310 314 314 320 322 325 324 322 322 320 320 320 321 320 318 319 320 321 322 327 330 324 324 322 322 322 321 320 326 323 330 331 333 331 331 331 331 337 338 340 339
304 308 313 315 313 316 317 320 322 322 320 320 325 322 319 320 320 319 318 320 321 320 320 325 329 326 324 323 322 320 320 320 317 326 332 331 334 332 331 330 331 334 335 338 338
308 312 316 317 318 316 320 321 319 319 319 321 324 324 326 327 322 319 320 321 321 323 322 324 324 327 325 326 323 320 321 318 318 322 324 328 328 324 328 326 332 329 330 331 333
308 310 317 318 318 317 320 321 319 319 319 319 320 323 324 327 327 321 321 327 326 323 322 324 323 325 329 327 327 323 322 318 318 321 325 327 326 320 327 327 324 324 327 326 330
303 309 313 318 319 319 319 321 321 320 320 320 320 321 321 324 325 331 329 327 329 328 327 325 322 323 323 323 326 329 329 324 320 319 323 322 323 321 323 324 322 325 324 328 329
305 313 313 316 317 321 322 322 321 324 325 324 321 323 324 326 325 327 329 329 327 326 333 328 325 321 322 326 327 329 327 325 324 324 322 323 324 323 322 322 322 322 330 330 330
306 310 315 318 317 318 321 322 322 322 325 319 319 321 324 326 326 329 329 328 327 326 327 322 324 326 326 327 326 326 325 324 325 325 326 324 324 322 322 322 320 319 319 321 324
304 310 313 316 316 320 319 322 322 322 325 324 318 320 321 328 331 331 332 332 328 325 328 324 328 328 328 330 329 329 327 324 323 325 324 323 323 324 330 334 331 328 328 327 331
308 310 313 317 317 317 316 321 321 322 323 325 322 326 325 326 325 323 323 325 330 325 328 326 326 327 330 331 328 327 327 327 326 325 325 326 323 330 336 338 336 334 334 332 330
Wind_Speed
19 20 20 22 22 23 23 22 22 20 19 17 15 14 15 16 17 9 6 5 3 6 4 4 7 6 3 3 3 4 3 4 5 5 8 9 10 2 4 10 5 7 7 19 28
19 20 21 23 24 24 24 24 22 19 17 15 14 14 14 16 14 10 8 8 6 5 5 3 4 5 5 3 4 3 4 6 5 2 8 11 7 8 5 9 3 4 4 13 20
20 22 22 24 25 26 26 25 23 18 16 15 14 12 11 13 4 6 5 12 9 9 8 5 8 2 2 4 2 2 5 5 8 8 6 5 13 5 15 3 13 12 9 14 15
21 24 24 26 26 27 27 27 23 18 14 13 11 9 10 4 1 4 3 7 8 9 7 1 3 2 2 2 3 2 9 4 7 3 4 5 17 11 6 13 11 13 14 20 18
21 23 24 26 26 27 27 27 24 16 13 12 9 8 3 2 7 5 6 8 10 8 4 2 3 1 3 4 7 6 6 2 6 5 4 2 6 6 9 8 13 17 19 18 8
23 25 26 26 27 28 29 28 23 17 12 8 7 6 2 3 4 7 8 10 9 7 2 4 6 5 5 3 1 4 1 6 5 9 4 2 5 5 4 22 16 20 20 21 19
24 25 27 28 29 30 29 28 22 14 8 5 5 3 1 10 4 8 9 9 11 11 4 8 7 1 4 9 4 5 4 7 9 4 4 4 11 12 12 18 17 13 12 13 23
25 27 28 29 30 31 30 28 19 10 5 4 3 1 6 3 10 11 8 8 12 13 16 19 11 2 2 3 9 6 4 3 8 2 1 10 10 20 15 21 16 11 8 6 13
26 28 30 30 30 31 31 27 16 7 4 4 2 1 8 4 14 16 14 9 12 16 16 12 5 0 6 4 6 6 3 4 8 2 3 8 3 8 14 18 14 12 9 7 8
26 28 30 32 32 32 31 24 10 3 1 1 2 4 6 4 9 13 18 19 7 4 5 2 5 3 3 4 4 6 3 5 3 5 11 9 6 3 6 11 10 13 9 10 12
27 30 32 32 31 34 28 5 5 2 4 7 5 5 5 6 9 8 12 6 1 5 2 3 3 7 11 9 9 4 7 9 5 5 9 8 6 4 5 6 9 10 9 16 17
27 30 33 33 33 26 9 1 6 2 8 10 12 11 24 12 4 6 14 4 2 4 2 4 7 14 8 9 9 6 4 4 5 5 10 1 4 5 5 4 2 7 13 13 18
28 31 33 34 29 3 22 13 24 25 3 8 6 6 6 9 9 9 11 5 4 4 4 5 12 6 8 8 2 6 5 3 8 3 7 4 6 6 3 5 7 2 7 9 18
28 30 33 37 6 23 14 18 26 14 4 7 4 7 3 4 3 11 18 6 2 4 5 6 17 13 8 2 5 4 0 5 5 4 4 3 5 5 4 9 4 5 9 7 12
29 30 31 33 19 9 13 28 26 2 2 3 4 4 4 7 2 4 14 3 9 8 1 7 7 4 2 3 4 3 5 4 2 4 4 2 4 7 4 5 4 5 3 3 5
30 31 33 17 18 19 20 28 4 5 5 3 7 6 5 3 5 4 6 1 4 5 5 10 6 4 5 1 4 3 5 7 5 4 2 2 5 5 5 6 3 2 2 3 6
32 32 33 24 6 16 21 5 4 3 5 4 5 5 6 6 4 6 5 4 4 3 5 7 3 2 4 4 7 8 7 4 5 4 6 1 2 7 6 5 5 7 8 8 7
35 35 26 26 22 15 8 5 2 4 6 6 5 7 8 6 6 7 7 5 5 4 2 1 7 4 2 4 5 3 7 5 2 2 5 5 1 5 7 6 6 9 8 7 8
37 27 20 19 7 8 4 2 5 5 3 9 1 5 4 5 5 5 8 7 7 8 7 1 5 2 7 4 5 1 2 5 5 2 3 3 2 5 7 6 7 10 9 10 10
26 14 15 11 11 9 4 5 5 3 8 6 4 1 7 6 7 6 8 6 6 9 6 3 2 3 2 6 4 5 3 4 4 2 1 4 2 4 4 9 14 13 15 12 11
10 4 6 9 15 5 3 6 6 8 8 5 5 3 2 3 4 7 10 6 11 1 10 5 4 5 4 4 3 4 3 5 5 4 4 1 5 6 10 12 16 11 15 13 13
6 3 6 6 3 1 3 3 6 9 14 9 6 4 2 3 3 4 9 3 5 11 8 2 5 3 3 6 4 2 4 5 5 4 2 3 5 8 6 7 9 12 15 9 11
3 4 8 5 2 3 5 7 7 12 14 5 5 2 1 2 3 4 2 5 6 5 8 5 1 3 8 6 6 4 1 4 5 3 4 5 5 3 3 4 5 8 9 15 11
2 3 4 4 1 3 3 5 7 7 7 7 3 4 6 5 0 3 3 5 5 4 6 8 4 7 7 6 3 3 7 6 5 3 3 5 6 6 6 7 9 4 6 9 9
1 4 2 4 4 6 1 6 11 7 4 5 2 3 2 3 7 4 2 3 6 3 5 5 4 2 4 2 2 1 3 6 1 5 4 7 6 7 8 3 5 6 9 9 5
0 2 4 4 5 5 2 4 8 9 5 9 4 2 6 5 2 3 1 2 1 4 3 4 1 3 5 5 7 2 7 7 6 3 3 5 3 5 3 9 14 9 8 8 8
3 5 3 4 5 3 3 7 8 12 6 3 5 6 7 1 3 4 4 1 2 6 2 3 4 3 2 4 5 4 4 3 5 4 4 4 4 5 7 11 7 8 9 9 8
Wind_Direction
360 355 349 351 350 345 341 338 334 331 328 327 324 326 329 323 320 297 255 225 290 240 287 269 275 299 300 276 208 114 58 291 263 337 293 129 114 240 62 128 220 204 181 171 165
355 354 348 349 349 347 344 339 334 332 328 324 322 329 330 325 320 261 253 221 272 223 239 215 295 349 339 270 342 96 118 243 209 250 276 111 109 140 115 157 238 229 215 175 164
352 348 347 348 348 347 345 341 334 329 326 325 325 332 328 326 316 256 272 217 238 227 228 237 280 169 216 5 264 215 205 205 281 264 246 95 141 124 138 246 181 189 149 153 162
350 345 346 344 347 346 344 341 332 327 326 327 332 334 325 334 258 298 180 204 215 207 230 7 20 228 250 249 231 226 249 185 271 283 40 339 134 157 178 199 151 66 82 64 34
347 342 342 343 344 343 341 341 332 327 322 324 329 334 333 304 252 229 193 195 199 201 232 38 359 136 261 277 335 190 264 321 277 317 298 302 332 131 200 120 106 109 102 98 84
344 341 342 338 341 340 339 340 333 326 319 313 323 337 11 287 261 201 190 193 201 204 285 174 226 222 259 246 134 289 298 324 315 308 312 303 294 102 15 111 115 120 127 139 167
340 340 340 338 339 339 337 339 331 324 325 316 326 3 337 240 212 187 190 202 194 204 219 257 256 251 354 326 304 311 328 349 302 288 288 139 24 4 127 118 126 136 165 171 177
340 341 339 335 338 335 333 336 328 319 323 315 340 45 250 203 183 172 192 234 238 247 248 274 313 45 137 285 353 352 54 42 283 238 301 76 5 13 143 124 124 157 230 210 224
341 341 337 335 337 332 328 333 321 297 302 303 33 99 271 343 178 209 204 222 255 264 262 277 349 310 9 50 355 2 252 219 314 272 94 90 137 352 103 118 147 178 200 235 3
338 338 337 335 335 331 328 331 315 261 223 322 278 333 272 232 196 211 222 227 239 251 357 322 36 19 11 72 232 238 232 242 170 323 90 99 151 161 95 126 164 172 184 180 211
338 338 336 335 333 328 330 339 14 27 197 200 199 257 282 288 207 199 211 228 269 56 192 287 84 238 238 204 228 242 267 160 176 183 82 134 106 350 351 153 153 153 169 218 225
337 338 336 332 331 325 346 96 229 49 302 230 238 240 258 268 221 208 206 163 134 232 57 358 243 239 242 264 246 179 41 53 59 152 101 270 58 305 346 353 9 32 83 84 88
337 337 337 332 329 352 326 293 330 328 299 288 219 216 216 170 204 208 153 176 226 256 236 190 251 266 213 242 26 1 133 200 163 87 24 91 347 343 330 321 351 339 121 81 137
335 336 339 337 340 334 305 333 336 344 43 278 203 254 201 200 243 198 189 158 229 247 243 231 249 241 214 274 128 46 120 65 84 98 206 152 257 286 329 318 320 309 56 46 129
333 334 333 337 309 310 311 327 339 68 19 234 188 208 166 165 173 235 185 115 230 257 15 269 293 192 89 243 109 197 63 56 354 31 79 347 97 271 43 314 287 302 32 58 142
327 328 328 332 305 296 328 330 4 44 259 233 158 165 126 192 238 15 177 150 198 243 230 244 248 195 150 101 115 153 59 36 47 72 352 145 143 270 206 207 218 255 251 215 146
325 322 317 302 255 311 324 2 48 170 310 202 182 153 170 202 259 167 201 197 192 16 7 328 292 224 127 72 19 63 57 357 4 9 232 57 66 245 207 221 212 190 231 183 168
323 321 312 286 279 287 333 56 194 266 260 262 159 152 177 183 232 176 151 216 255 124 346 252 330 183 174 143 161 85 128 143 195 230 266 306 41 285 183 177 236 194 200 180 146
326 323 300 282 248 193 81 131 211 233 337 348 178 150 241 233 167 145 191 206 217 172 181 114 298 109 85 96 105 353 76 183 128 24 68 267 288 347 83 171 211 199 188 191 189
326 315 281 265 157 129 84 235 243 281 342 339 330 57 191 225 151 165 185 215 228 193 154 235 123 358 125 56 28 144 192 45 14 94 315 319 302 229 181 212 211 193 203 200 205
320 336 294 164 139 54 176 234 284 284 330 346 334 338 17 41 229 194 197 243 204 311 150 166 109 295 33 42 259 14 25 62 110 117 150 178 265 235 205 204 199 205 209 195 202
349 327 66 161 88 195 225 236 316 297 305 288 253 233 161 334 311 240 203 234 264 159 146 157 132 128 211 297 287 109 127 107 108 276 91 141 268 316 207 256 220 208 222 212 206
335 257 318 175 200 246 267 277 280 286 285 286 265 11 291 290 357 18 57 333 33 110 153 180 42 59 344 360 1 57 50 127 109 85 195 143 261 281 212 241 191 187 193 191 188
11 327 311 32 336 211 318 280 278 277 278 256 226 62 33 9 260 281 31 355 21 61 82 88 112 147 182 192 184 351 353 12 88 100 237 222 271 284 304 317 309 153 169 160 175
126 264 290 339 325 334 278 276 284 295 272 269 34 102 96 358 352 352 84 25 25 349 47 92 118 106 124 110 91 151 338 337 145 217 158 263 230 343 356 12 7 51 49 58 40
158 18 340 279 283 321 230 289 228 268 229 303 218 213 77 100 68 350 18 26 136 358 70 17 135 79 357 40 59 15 322 333 325 328 276 224 244 96 350 49 58 56 64 62 63
313 328 108 278 328 344 2 313 347 327 270 226 203 103 76 146 236 216 297 140 124 135 90 84 116 85 264 7 52 357 269 317 291 294 247 217 122 168 64 69 58 60 64 73 81